Location: Bottom School (historical)
(37.9078°N, 89.3593°W)
Time: 22:48:33
(UTC+00:00)

deb Agena D - Visible Passes

Search period start: 29 November 2023 00:00
Search period end: 09 December 2023 00:00
Orbit: 605 x 649 km, 70.0° (Epoch: 29 November)

Date Brightness Start Highest point End Pass type
(mag) Time Alt. Az. Time Alt. Az. Time Alt. Az.
29 Nov ? 01:15:16 10° W 01:17:16 13° NW 01:19:05 10° NNW visible
29 Nov ? 23:52:56 10° SW 23:57:13 55° WNW 00:01:33 10° NNE visible
01 Dec ? 00:13:35 10° WSW 00:17:14 25° WNW 00:20:54 10° N visible
02 Dec ? 00:35:29 10° WNW 00:37:24 13° NW 00:39:21 10° NNW visible
02 Dec ? 23:13:00 10° SW 23:17:17 54° WNW 23:21:36 10° NNE visible
03 Dec ? 23:33:37 10° WSW 23:37:14 25° WNW 23:40:52 10° N visible
04 Dec ? 23:55:29 10° WNW 23:57:20 12° NW 23:59:12 10° NNW visible
07 Dec ? 23:15:15 10° WNW 23:17:03 12° NW 23:18:52 10° NNW visible
